Regional Weather Roundup
Issued by NWS

Home | Current Version | Previous Version | Text Only | Print | Product List | Glossary On
Versions: 1 2 3 4 5 6 7 8 9 10 11 12 13 14 15 16 17 18 19 20 21 22 23 24 25 26 27 28 29 30 31 32 33 34 35 36 37 38 39 40 41 42 43 44 45 46 47 48 49 50
000
ASUS42 KTBW 020910
RWRFL
FLORIDA REGIONAL WEATHER ROUNDUP
NATIONAL WEATHER SERVICE TAMPA BAY RUSKIN FL
500 AM EDT TUE SEP 02 2014

NOTE: "FAIR" INDICATES FEW OR NO CLOUDS BELOW 12,000 FEET WITH NO
SIGNIFICANT WEATHER AND/OR OBSTRUCTIONS TO VISIBILITY.


FLZ001>010-012>015-112-114-115-021000-
PANHANDLE FLORIDA

CITY           SKY/WX    TMP DP  RH WIND       PRES   REMARKS
PENSACOLA      CLEAR     79  74  84 S5        30.03R
PENSACOLA NAS  CLEAR     81  75  82 S6        30.02S
MILTON NAS     CLEAR     74  71  91 CALM      30.04R
CRESTVIEW      CLEAR     72  71  97 CALM      30.05S
DUKE FIELD     FAIR      72  72 100 N3        30.04S
VALPARAISO     PTCLDY    79  74  85 N3        30.02F
MARY ESTHER    CLEAR     83  71  66 N3        30.02S
TRI COUNTY     LGT RAIN  70  70 100 CALM      30.04S FOG
PANAMA CITY    FAIR      75  72  90 CALM      30.02S
TYNDALL AFB    CLEAR     75  75 100 E3        30.03S
APALACHICOLA   CLEAR     74  72  93 N3        30.02F

STATION/POSITION SKY/WX   TEMP    WIND        PRES    WAVE   SWELL
                          AIR SEA DIR/SP/G            HT/PER HT/PER
                          (F)     (DEG/KT/KT) (MB)    (FT/S) (FT/S)
30.1N   87.6W              84 85  170/ 10/ 12 1016.4R   3/ 6   2/ 6
28.8N   86.0W              84 86  140/  6/  8 1016.4    3/ 6   3/ 6
PANAMA CITY BEAC           84 87  220/  5/  7 1016.6F
CAPE SAN BLAS    NOT AVBL
TOWER C                    83     160/  5/  6 1016.6F
28.5N   84.5W              84 86  100/  6/  8 1016.7F   2/ 8   2/ 8

$$
FLZ011-016>038-118-127-128-134-139-239-021000-
NORTH FLORIDA

CITY           SKY/WX    TMP DP  RH WIND       PRES   REMARKS
MARIANNA       CLEAR     73  73 100 CALM      30.02S
TALLAHASSEE    CLEAR     74  71  91 CALM      30.04R
PERRY          MOCLDY    73  73 100 CALM      30.04R
CROSS CITY       N/A     77  74  90 N6        30.03S
LAKE CITY      FAIR      72  70  94 CALM      30.04S
GAINESVILLE    PTCLDY    72  72 100 CALM      30.03F
MAYPORT NAS    CLEAR     77  74  90 S6        30.03F
JACKSONVILLE   CLEAR     74  74 100 CALM      30.03S
JAX NAS        PTCLDY    83  74  74 SW6       30.03F
JAX CRAIG      CLEAR     76  73  91 SE5       30.03F
JAX CECIL      CLEAR     72  72 100 CALM      30.03F
FERNANDINA BEA FAIR      79  73  83 CALM      30.03R
ST AUGUSTINE   CLEAR     77  74  90 SW3       30.04F

STATION/POSITION SKY/WX   TEMP    WIND        PRES    WAVE   SWELL
                          AIR SEA DIR/SP/G            HT/PER HT/PER
                          (F)     (DEG/KT/KT) (MB)    (FT/S) (FT/S)
SHELL POINT                80      80/  1/  3   N/A
KEATON BEACH               77     110/  3/  4 1017.0S
CEDAR KEY                  83      90/  6/  6 1017.3F
FERNANDINA                 79 87  190/  1/  2 1016.7R
30.7N   81.3W                 84                N/A     2/ 8
MAYPORT                    78 85  190/  3/  4   N/A
31.4N   80.9W              83 85  210/ 10/ 12 1017.2F   2/ 9   2/ 9
ST AUGUSTINE               78     200/  6/  7 1017.7F

$$
FLZ040-043>046-052-053-057-058-063-144-021000-
INTERIOR CENTRAL FLORIDA

CITY           SKY/WX    TMP DP  RH WIND       PRES   REMARKS
OCALA          PTCLDY    73  72  94 CALM      30.03F
LEESBURG       CLEAR     80  75  84 SE7       30.05F
SANFORD        PTCLDY    78  74  87 CALM      30.05S
ORLANDO EXEC   CLEAR     79  74  84 CALM      30.05F
ORLANDO INTL   CLEAR     77  74  90 CALM      30.05F
WINTER HAVEN   CLEAR     79  73  82 E5        30.05F
LAKELAND       CLEAR     77  75  94 CALM      30.04F
BARTOW         FAIR      75  75 100 E3        30.05F
OKEECHOBEE       N/A     72  72 100 MISG        N/A

$$
FLZ041-047-054-059-064-141-147-021000-
EAST CENTRAL FLORIDA

CITY           SKY/WX    TMP DP  RH WIND       PRES   REMARKS
DAYTONA BEACH  PTCLDY    75  74  96 S3        30.04F
DELAND         SUNNY     75  73  94 CALM      30.05F
JFK SPACE CTR  CLEAR     74  72  95 SE2       30.04F
CAPE CANAVERAL CLEAR     74  71  92 CALM      30.03F
PATRICK AFB    PTCLDY    81  74  79 S5        30.04F
MELBOURNE      CLEAR     78  74  87 CALM      30.04F
VERO BEACH     CLEAR     74  71  91 W3        30.04F
FT PIERCE      PTCLDY    74  71  91 W3        30.03F
STUART           N/A     73  72  94 CALM      30.04F

STATION/POSITION SKY/WX   TEMP    WIND        PRES    WAVE   SWELL
                          AIR SEA DIR/SP/G            HT/PER HT/PER
                          (F)     (DEG/KT/KT) (MB)    (FT/S) (FT/S)
28.5N   80.2W              83 86  140/  6/  6 1017.7F
28.9N   78.5W              82 84  140/  4/  6 1018.0F   3/ 7   3/ 7
TRIDENT PIER               81 86  130/  3/  5 1016.8F
28.4N   80.5W                 84                N/A     2/ 8
27.6N   80.2W                 86                N/A     2/ 8

$$
FLZ050-056-061-142-242-148-248-149-249-151-251-155-255-
160-260-021000-
WEST CENTRAL FLORIDA

CITY           SKY/WX    TMP DP  RH WIND       PRES   REMARKS
CRYSTAL RIVER  FAIR      72  72 100 CALM      30.02F
INVERNESS      FAIR      72  72 100 CALM      30.03F FOG
BROOKSVILLE    PTCLDY    74  71  91 CALM      30.04F
ZEPHYRHILLS    FAIR      70  70 100 CALM      30.05S
CLEARWATER     CLOUDY    81  75  82 E5        30.02F
TAMPA INTL     MOCLDY    78  73  84 NE3       30.03F
TAMPA EXEC     CLEAR     77  73  88 CALM      30.03F
PLANT CITY     CLEAR     77 N/A N/A E3        30.05F
MACDILL AFB    MOCLDY    78  78  98 E7        30.02F
ST PETERSBURG  CLEAR     83  74  74 SE10      30.01F
SARASOTA       CLEAR     80  73  79 E6        30.01F
VENICE           N/A    N/A N/A N/A MISG        N/A

STATION/POSITION SKY/WX   TEMP    WIND        PRES    WAVE   SWELL
                          AIR SEA DIR/SP/G            HT/PER HT/PER
                          (F)     (DEG/KT/KT) (MB)    (FT/S) (FT/S)
CEDAR KEY                  83      90/  6/  6 1017.3F
28.5N   84.5W              84 86  100/  6/  8 1016.7F   2/ 8   2/ 8
27.3N   84.3W                 87                N/A     3/ 8
CLEARWATER BEACH           79 88   90/  5/  7 1016.3S
MIDDLE TAMPA BAY           80     130/  9/ 10 1016.7F
VENICE                     76 88   80/  5/  6 1016.4F

$$
FLZ066-069-070-075>078-162-262-165-265-021000-
SOUTHWEST FLORIDA AND KEYS

CITY           SKY/WX    TMP DP  RH WIND       PRES   REMARKS
PUNTA GORDA    CLEAR     75  73  93 N3        30.04F
FT MYERS       CLEAR     74  72  93 CALM      30.01F
SOUTHWEST INTL CLEAR     74  71  91 E5        30.02F
NAPLES         CLEAR     75  74  96 E5        30.01F
MARCO ISLAND   SUNNY     73  72  94 E5        30.01F
MARATHON       PTCLDY    82  76  81 E5        29.99F
KEY WEST NAS   CLEAR     83  76  79 E7        29.99F
KEY WEST INTL  CLEAR     82  75  79 E6        30.00F

STATION/POSITION SKY/WX   TEMP    WIND        PRES    WAVE   SWELL
                          AIR SEA DIR/SP/G            HT/PER HT/PER
                          (F)     (DEG/KT/KT) (MB)    (FT/S) (FT/S)
VENICE                     76 88   80/  5/  6 1016.4F
NAPLES                     75      80/  3/  5 1016.8F
DRY TORTUGAS               85     120/ 12/ 13 1015.3F
NW FL BAY                  83      70/  9/ 10 1016.7F
SAND KEY                   84      90/ 13/ 16 1015.6F
SOMBRERO KEY               84      70/ 11/ 12 1016.1F
LONG KEY                   84 86   80/  9/ 10 1017.0F
MOLASSES REEF              84 87  110/ 12/ 13 1015.8F

$$
FLZ067-068-071>074-168-172>174-021000-
SOUTHEAST FLORIDA

CITY           SKY/WX    TMP DP  RH WIND       PRES   REMARKS
W PALM BEACH   PTCLDY    82  73  74 CALM      30.01F
FT LAUDER-EXEC CLEAR     80  75  84 CALM      30.01F
FT LAUDERDALE  PTCLDY    82  74  76 E5        30.01F
POMPANO BEACH  PTCLDY    84  72  67 E7        30.01F
PEMBROKE PINES PTCLDY    79  75  87 E8        30.02F
OPA LOCKA      CLEAR     80  72  76 N3        30.01F
MIAMI          PTCLDY    81  74  79 NE3       30.01F
WEST KENDALL   CLEAR     80  73  79 E3        30.01F
HOMESTEAD      CLEAR     78  72  81 N5        30.00F

STATION/POSITION SKY/WX   TEMP    WIND        PRES    WAVE   SWELL
                          AIR SEA DIR/SP/G            HT/PER HT/PER
                          (F)     (DEG/KT/KT) (MB)    (FT/S) (FT/S)
PORT EVERGLADES            84      80/  6/ 10 1016.2
VIRGINIA KEY               84 87   70/  7/ 10   N/A
LAKE WORTH                 83 87  110/  5/  7 1016.2F
FOWEY ROCKS                84 86   70/ 10/ 11 1016.4F
SETTLEMENT POINT           82     110/  7/  8 1017.5F

$$




USA.gov is the U.S. government's official web portal to all federal, state and local government web resources and services.